Regional Weather Roundup
Issued by NWS

Home | Current Version | Previous Version | Graphics & Text | Print | Product List | Glossary On
Versions: 1 2 3 4 5 6 7 8 9 10 11 12 13 14 15 16 17 18 19 20 21 22 23 24 25 26 27 28 29 30 31 32 33 34 35 36 37 38 39 40 41 42 43 44 45 46 47 48 49 50
000
ASUS45 KBOU 232107
RWRCO

WEATHER ROUNDUP FOR COLORADO
NATIONAL WEATHER SERVICE DENVER/BOULDER CO
300 PM MDT MON MAY 23 2016

NOTE: "FAIR" INDICATES FEW OR NO CLOUDS BELOW 12000 FEET WITH NO
SIGNIFICANT WEATHER AND/OR OBSTRUCTIONS TO VISIBILITY.

COZ001>005-013-030-031-232200-
...NORTHWEST COLORADO...

CITY           SKY/WX    TMP DP  RH WIND       PRES   REMARKS
CRAIG          PTSUNNY   60  30  32 SE10G35   29.92S
HAYDEN         FAIR      57  27  30 W13G22    29.95R
MEEKER         PTSUNNY   64  23  21 VRB7G24   29.90F
MOUNT WERNER   NOT AVBL
STEAMBOAT SPGS FAIR      58  25  28 SW8       29.94S
WALDEN         PTSUNNY   55  19  24 SW10G20   30.00S
$$

COZ006>008-011-232200-
...WEST CENTRAL VALLEYS...

CITY           SKY/WX    TMP DP  RH WIND       PRES   REMARKS
GRAND JUNCTION FAIR      70  24  17 MISG      29.84F
MONTROSE       FAIR      71  19  14 W15G21    29.88F
EAGLE          MOSUNNY   64  19  17 W10G20    29.92F
RIFLE          PTSUNNY   69  23  17 W14       29.85F
DELTA          FAIR      76  16  10 SW12G22   29.85S
NUCLA          FAIR      70  14  11 SW16G26   29.94F
$$

COZ017>023-064>068-232200-
...SOUTHWEST COLORADO...

CITY           SKY/WX    TMP DP  RH WIND       PRES   REMARKS
DURANGO        FAIR      66  23  19 S12G18    29.98F
CORTEZ         FAIR      70  16  12 SW10G20   29.93F
PAGOSA SPRINGS FAIR      64  13  14 S17G25    30.03F
TELLURIDE      PTSUNNY   55  15  20 S12G25    30.06S
WOLF CREEK PAS FAIR      37  19  48 SW30G53   30.21S
$$

COZ009-010-012-014-032>034-037-058>063-232200-
...CENTRAL COLORADO...

CITY           SKY/WX    TMP DP  RH WIND       PRES   REMARKS
ASPEN          FAIR      62  14  15 SW12G21   29.94F
BUENA VISTA    PTSUNNY   61  16  17 CALM      29.93F
COPPER MTN     NOT AVBL
BERTHOUD PASS  FAIR      32  23  69 W8G17     30.17F WCI  25
COTTONWOOD PAS PTSUNNY   57   9  14 W5        30.04S
GUNNISON       FAIR      63  19  19 W15G23    29.97S
KREMMLING      PTSUNNY   61  21  21 NW9       29.94F
LEADVILLE      FAIR      50  17  27 SW9G18    30.04S
MONARCH PASS   FAIR      43  18  36 SW28G35   30.24F
SALIDA         PTSUNNY   67  14  12 SW16      29.98S
SUNLIGHT       CLOUDY    45  25  45 SW3       30.13S
WILKERSON PASS CLOUDY    41  23  48 SW3       30.15R
$$

COZ069>075-232200-
...SAN LUIS VALLEY/SANGRE DE CRISTO MOUNTAINS...

CITY           SKY/WX    TMP DP  RH WIND       PRES   REMARKS
ALAMOSA        FAIR      70  20  15 SW15G28   29.97S
LA VETA PASS   PTSUNNY   59  25  27 S12G22    30.10S
SAGUACHE       FAIR      68  12  11 W23G37    29.95F
$$

COZ035-036-038>040-232200-
...NORTHERN COLORADO FRONT RANGE...

CITY           SKY/WX    TMP DP  RH WIND       PRES   REMARKS
DENVER INTL AP PTSUNNY   58  43  57 NW22G28   29.90R
DMNS CITY PARK   N/A     61  40  46 N16G23    29.89S
AURORA         PTSUNNY   59  42  54 N14       29.91R
FRONT RANGE AP PTSUNNY   55  43  62 NW23G32   29.90R
ERIE MUNI ARPT FAIR      63  44  50 SE13      29.89F
BOULDER MUN AP CLOUDY    63  36  36 W9        29.90S
CENTENNIAL     LGT RAIN  61  40  45 N15       29.91R
BROOMFIELD     PTSUNNY   63  41  45 CALM      29.91S
FORT COLLINS   FAIR      63  39  42 S22G30    29.89R
LONGMONT       CLOUDY    62  41  45 SE5G18    29.92R
$$

COZ041-046-047-076>085-087-088-232200-
...PIKES PEAK/PALMER DIVIDE AND SOUTHERN FOOTHILLS...

CITY           SKY/WX    TMP DP  RH WIND       PRES   REMARKS
COLO. SPRINGS  FAIR      68  27  21 S15G26    29.91F
A. F. ACADEMY  FAIR      66  30  26 S22       29.89F
SCHRIEVER AFB  NOT AVBL
ELLICOTT       FAIR     N/A N/A N/A S12G25    29.89F
FALCON         FAIR      66  26  22 S14       29.94F
FORT CARSON    FAIR      69  33  26 VRB6G20   29.88F
LIMON          FAIR      69  34  27 SE17G25   29.87F
MONUMENT HILL  FAIR      59  30  33 S16G23    29.95R
TRINIDAD       FAIR      74  39  28 E10       29.86F
$$

COZ042>045-048>051-090-091-232200-
...NORTHEAST COLORADO...

CITY           SKY/WX    TMP DP  RH WIND       PRES   REMARKS
GREELEY ARPT   PTSUNNY   61  39  44 S22G29    29.91R
AKRON          FAIR      70  32  24 SW8G18    29.87S
BURLINGTON     FAIR      75  36  24 E15       29.85F
WRAY           NOT AVBL
STERLING       FAIR      72  36  26 SE10      29.83F
HOLYOKE        FAIR      79  32  18 S5        29.83F
FORT MORGAN    FAIR      67  32  27 S6        29.87S
$$

COZ086-089-092>099-232200-
...SOUTHEAST COLORADO...

CITY           SKY/WX    TMP DP  RH WIND       PRES   REMARKS
PUEBLO         FAIR      77  33  20 S15       29.81F
LA JUNTA       FAIR      80  37  21 S14G22    29.80F
LAMAR          FAIR      79  48  33 VRB7G17   29.78F
SPRINGFIELD      N/A     78  44  29 VRB3      29.82F
$$



USA.gov is the U.S. government's official web portal to all federal, state and local government web resources and services.